Preview of NWS' New Version of Forecast
This preview is not operational and should not be used for support decisions.

Regional Weather Roundup (RWR)

Issued by National Weather Service (NWS)

                            
000
ASUS42 KTBW 211218
RWRFL 
FLORIDA REGIONAL WEATHER ROUNDUP
NATIONAL WEATHER SERVICE TAMPA BAY RUSKIN FL
800 AM EDT SAT SEP 21 2019

NOTE: "FAIR" INDICATES FEW OR NO CLOUDS BELOW 12,000 FEET WITH NO
SIGNIFICANT WEATHER AND/OR OBSTRUCTIONS TO VISIBILITY.

FLZ001>010-012>015-112-114-115-211300-
PANHANDLE FLORIDA
  
CITY           SKY/WX    TMP DP  RH WIND       PRES   REMARKS
PENSACOLA      FAIR      74  70  87 E8        30.18R                  
PENSACOLA NAS  FAIR      76  72  87 E13       30.16R                  
MILTON NAS     FAIR      68  64  87 E6        30.19S                  
CRESTVIEW      FAIR      65  62  90 E3        30.22R                  
DUKE FIELD     FAIR      68  65  91 E5        30.20R                  
VALPARAISO     FAIR      72  65  81 E8        30.19R                  
MARY ESTHER    PTCLDY    72  67  82 E8        30.17R                  
PANAMA CITY    FAIR      71  66  84 NE7       30.19R                  
TYNDALL AFB    FAIR      70  67  90 E8        30.19R                  
APALACHICOLA   MOCLDY    71  68  90 NE7       30.18R                  

STATION/POSITION SKY/WX   TEMP    WIND        PRES    WAVE   SWELL
                          AIR SEA DIR/SP/G            HT/PER HT/PER
                          (F)     (DEG/KT/KT) (MB)    (FT/S) (FT/S)
30.1N   87.6W              81 84  110/ 19/ 23 1021.0
29.2N   88.2W              83     110/ 17/ 23 1019.7R
28.8N   86.0W                 85  110/ 19/ 23 1020.3R   7/ 7
PANAMA CITY BEAC           73 83  100/  7/ 12 1022.8R
TOWER C                    79     110/ 22/ 25 1022.1R
28.5N   84.5W              81      90/ 17/ 23 1021.4R   7/ 7

$$
FLZ011-016>038-118-127-128-134-139-239-211300-
NORTH FLORIDA
  
CITY           SKY/WX    TMP DP  RH WIND       PRES   REMARKS
MARIANNA       FAIR      66  66 100 NE6       30.22R                  
TALLAHASSEE    FAIR      70  69  97 CALM      30.22R                  
PERRY          FAIR      69  68  97 NE5       30.22R                  
LIVE OAK       CLEAR     66  66 100 CALM      30.22R                  
CROSS CITY       N/A     69  68  97 NE3       30.20S                  
LAKE CITY      CLOUDY    68  64  88 NE5       30.22R                  
GAINESVILLE    FAIR      70  67  90 N3        30.23R                  
WILLISTON      FAIR      67  66  96 NE5       30.20R                  
PALATKA        CLOUDY    66  64  94 CALM      30.20R                  
MAYPORT NAS    CLOUDY    80  66  62 E17       30.21R                  
JACKSONVILLE   MOCLDY    70  66  87 CALM      30.21R                  
JAX NAS        FAIR      75  65  70 NE6       30.21R                  
JAX CECIL      PTCLDY    66  64  94 N5        30.21R                  
FERNANDINA BEA CLOUDY    79  65  61 E13       30.22R                  
ST AUGUSTINE   FAIR      81  32  17 E15       30.21R                  
PALM COAST     PTCLDY    79  64  61 E12       30.18R                  

STATION/POSITION SKY/WX   TEMP    WIND        PRES    WAVE   SWELL
                          AIR SEA DIR/SP/G            HT/PER HT/PER
                          (F)     (DEG/KT/KT) (MB)    (FT/S) (FT/S)
SHELL POINT      NOT AVBL
KEATON BEACH               69      40/  5/  6 1023.0R
CEDAR KEY                  71      40/  7/ 10 1021.8R
FERNANDINA                         80/  3/ 10   N/A
30.7N   81.3W                 81                N/A     5/ 8   2/14
MAYPORT                    79 81   70/ 11/ 13 1023.2R
31.4N   80.9W              80 81   80/ 14/ 16 1023.9R   5/ 8   3/ 8
ST AUGUSTINE               80 80   60/ 17/ 19 1022.7R

$$
FLZ040-043>046-052-053-057-058-063-144-211300-
INTERIOR CENTRAL FLORIDA
  
CITY           SKY/WX    TMP DP  RH WIND       PRES   REMARKS
OCALA          FAIR      67  65  93 NE3       30.19R                  
LEESBURG       FAIR      72  64  76 NE5       30.18R                  
SANFORD        CLOUDY    73  64  73 NE5       30.16R                  
ORLANDO EXEC   FAIR      72  66  81 E5        30.16R                  
ORLANDO INTL   FAIR      73  65  75 NE12      30.15R                  
KISSIMMEE      FAIR      74  67  78 NE6       30.16R                  
WINTER HAVEN   FAIR      73  65  75 NE8       30.15R                  
LAKELAND       CLEAR     70  64  83 NE5       30.15R                  
BARTOW         PTCLDY    73  66  78 NE6       30.14R                  
SEBRING        FAIR      71  66  83 NE6       30.13R                  
OKEECHOBEE       N/A     68  66  94 NE5       30.11R                  

$$
FLZ041-047-054-059-064-141-147-211300-
EAST CENTRAL FLORIDA
  
CITY           SKY/WX    TMP DP  RH WIND       PRES   REMARKS
ORMOND BEACH   PTCLDY    79  61  53 E12G17    30.17R                  
DAYTONA BEACH  MOCLDY    79  61  53 E9        30.17R                  
DELAND         MOCLDY    68  63  83 CALM      30.17R                  
NEW SMYRNA BEA PTCLDY    81  59  47 E16       30.18R                  
JFK SPACE CTR  PTCLDY    78  68  70 E12       30.15R                  
TITUSVILLE     PTCLDY    81  70  69 E7        30.16R                  
CAPE CANAVERAL FAIR      79  67  66 E13       30.14R                  
PATRICK AFB    FAIR      80  65  59 E16       30.13R                  
MELBOURNE      FAIR      80  64  58 E15       30.13R                  
VERO BEACH     FAIR      80  68  66 E15       30.12R                  
FT PIERCE      FAIR      80  68  66 E15       30.11R                  
STUART         PTSUNNY   81  68  65 E16G26    30.11R                  

STATION/POSITION SKY/WX   TEMP    WIND        PRES    WAVE   SWELL
                          AIR SEA DIR/SP/G            HT/PER HT/PER
                          (F)     (DEG/KT/KT) (MB)    (FT/S) (FT/S)
28.5N   80.2W              81 83   70/ 17/ 23 1021.2R  11/15   8/15
28.9N   78.5W              79 81   70/ 17/ 23 1022.0R  10/14   8/14
TRIDENT PIER               79 81   70/ 12/ 16 1022.0
28.4N   80.5W                 81                N/A     5/ 7   2/14
27.5N   80.2W                 82                N/A     8/15   5/15

$$
FLZ050-056-061-142-242-148-248-149-249-151-251-155-255-
160-260-211300-
WEST CENTRAL FLORIDA
  
CITY           SKY/WX    TMP DP  RH WIND       PRES   REMARKS
CRYSTAL RIVER  FAIR      66  64  94 CALM      30.18R                  
INVERNESS      FAIR      66  66 100 CALM      30.19R                  
BROOKSVILLE    FAIR      68  65  90 N5        30.17R                  
CLEARWATER AIR FAIR      70  64  83 NE3       30.15R                  
ST PETE CLEARW FAIR      76  65  68 NE10      30.14R                  
TAMPA INTL     FAIR      73  64  73 NE6       30.15R                  
TAMPA EXEC     FAIR      68  66  94 CALM      30.15R                  
PLANT CITY     FAIR      70  66  88 NE3       30.17R                  
MACDILL AFB    FAIR      71  65  83 E7        30.14R                  
PETER O KNIGHT CLOUDY    72  68  88 NE8       30.15R                  
ST PETERSBURG  FAIR      77  67  71 NE16      30.13R                  
SARASOTA       FAIR      74  66  76 NE8       30.10R                  
VENICE         FAIR      73  66  78 NE10      30.11R                  

STATION/POSITION SKY/WX   TEMP    WIND        PRES    WAVE   SWELL
                          AIR SEA DIR/SP/G            HT/PER HT/PER
                          (F)     (DEG/KT/KT) (MB)    (FT/S) (FT/S)
27.3N   84.2W                 84                N/A     8/ 7
CLEARWATER BEACH           72 84   30/  7/ 10 1020.9R
MIDDLE TAMPA BAY           75      70/ 14/ 17 1020.4R
VENICE                     73 84   50/  7/ 10 1019.6R

$$
FLZ066-069-070-075>078-162-262-165-265-211300-
SOUTHWEST FLORIDA AND KEYS
  
CITY           SKY/WX    TMP DP  RH WIND       PRES   REMARKS
PUNTA GORDA    FAIR      71  68  90 NE10      30.12R                  
FT MYERS       FAIR      74  67  78 NE9       30.08R                  
SOUTHWEST INTL FAIR      73  68  84 NE7       30.09R                  
NAPLES         FAIR      76  71  85 NE10      30.06R                  
IMMOKALEE      FAIR      73  70  88 N8        30.06S                  
MARATHON       FAIR      80  75  84 NE15      30.00R                  
KEY WEST NAS   MOCLDY    82  76  81 NE13      29.99S                  
KEY WEST INTL  CLOUDY    80  76  87 NE9G18    30.00R                  

STATION/POSITION SKY/WX   TEMP    WIND        PRES    WAVE   SWELL
                          AIR SEA DIR/SP/G            HT/PER HT/PER
                          (F)     (DEG/KT/KT) (MB)    (FT/S) (FT/S)
NAPLES                             40/  7/ 12   N/A
26.0N   85.6W              83 86   70/ 21/ 27 1017.2
DRY TORTUGAS               83      90/ 27/ 29 1015.5R
SAND KEY                   79      60/ 19/ 26 1014.5
SOMBRERO KEY               81      60/ 20/ 25 1016.8
LONG KEY                   82                 1014.8

$$
FLZ067-068-071>074-168-172>174-211300-
SOUTHEAST FLORIDA 
  
CITY           SKY/WX    TMP DP  RH WIND       PRES   REMARKS
W PALM BEACH   PTSUNNY   80  70  71 NE15G25   30.08R                  
BOCA RATON     MOSUNNY   81  73  78 E17       30.07R                  
FT LAUDER-EXEC LGT RAIN  80  72  76 NE15G28   30.05R                  
FT LAUDERDALE  CLOUDY    79  74  84 NE13      30.04R                  
POMPANO BEACH  PTSUNNY   82  72  71 NE16G26   30.06R                  
PEMBROKE PINES CLOUDY    82  72  71 NE17G24   30.06R                  
OPA LOCKA      LGT RAIN  81  73  76 NE18G24   30.05R                  
MIAMI          PTSUNNY   82  72  71 NE14G21   30.04R                  
WEST KENDALL   CLOUDY    79  75  87 NE9       30.03R                  
HOMESTEAD      PTSUNNY   80  76  86 NE17      30.01R                  

STATION/POSITION SKY/WX   TEMP    WIND        PRES    WAVE   SWELL
                          AIR SEA DIR/SP/G            HT/PER HT/PER
                          (F)     (DEG/KT/KT) (MB)    (FT/S) (FT/S)
VIRGINIA KEY               80 83   30/ 13/ 23 1016.4R
LAKE WORTH                 81 81   60/ 22/ 25 1019.4
FOWEY ROCKS                82 83   50/ 26/ 27 1016.8R
SETTLEMENT POINT           79      60/ 19/ 22 1018.7R

$$